Regional Weather Roundup
Issued by NWS

Home | Current Version | Previous Version | Text Only | Print | Product List | Glossary On
Versions: 1 2 3 4 5 6 7 8 9 10 11 12 13 14 15 16 17 18 19 20 21 22 23 24 25 26
000
ASUS42 KTBW 210617
RWRFL
FLORIDA REGIONAL WEATHER ROUNDUP
NATIONAL WEATHER SERVICE TAMPA BAY RUSKIN FL
200 AM EDT FRI JUL 21 2017

NOTE: "FAIR" INDICATES FEW OR NO CLOUDS BELOW 12,000 FEET WITH NO
SIGNIFICANT WEATHER AND/OR OBSTRUCTIONS TO VISIBILITY.

FLZ001>010-012>015-112-114-115-210700-
PANHANDLE FLORIDA

CITY           SKY/WX    TMP DP  RH WIND       PRES   REMARKS
PENSACOLA      CLEAR     83  77  82 N3        30.01F
PENSACOLA NAS  CLEAR     78  76  93 CALM      30.01F
MILTON NAS     CLEAR     75  75 100 CALM      30.02
CRESTVIEW      PTCLDY    75  73  93 CALM      30.04F
DUKE FIELD     FAIR      76  74  93 CALM      30.02F
VALPARAISO     PTCLDY    78  75  88 CALM      30.01F
MARY ESTHER    CLEAR     79  79 100 CALM      30.00F
PANAMA CITY    FAIR      78  75  90 NW3       30.01F
TYNDALL AFB    CLEAR     82  78  85 W7        30.02F
APALACHICOLA   MOCLDY    79  78  97 CALM      30.03R

STATION/POSITION SKY/WX   TEMP    WIND        PRES    WAVE   SWELL
                          AIR SEA DIR/SP/G            HT/PER HT/PER
                          (F)     (DEG/KT/KT) (MB)    (FT/S) (FT/S)
30.1N   87.6W              86 88  280/  6/  8 1016.1F   1
29.2N   88.2W              85 86  220/  8/ 10 1016.6F   1
28.8N   86.0W              84 84  240/  4/  6 1016.6F   1
PANAMA CITY BEAC                  260/  9/ 11 1016.9F
TOWER C          NOT AVBL
28.5N   84.5W              84 87  270/  4/  6 1016.8F   1/ 7

$$
FLZ011-016>038-118-127-128-134-139-239-210700-
NORTH FLORIDA

CITY           SKY/WX    TMP DP  RH WIND       PRES   REMARKS
MARIANNA       PTCLDY    78  76  93 S8        30.02F
TALLAHASSEE    PTCLDY    76  73  91 CALM      30.03S
PERRY          MOCLDY    75  73  92 CALM      30.04S
LIVE OAK       CLEAR     75  75 100 CALM      30.04F
CROSS CITY     CLOUDY    72  70  95 CALM      30.07F
LAKE CITY      FAIR      72  72 100 CALM      30.04S
GAINESVILLE    CLEAR     70  68  93 CALM      30.06S
WILLISTON      CLEAR     73  72  94 CALM      30.04S
PALATKA        FAIR      73  73 100 CALM      30.04F
MAYPORT NAS    PTCLDY    76  71  85 SW3       30.03F
JACKSONVILLE   PTCLDY    72  70  93 CALM      30.03F
JAX NAS        PTCLDY    80  70  71 CALM      30.03F
JAX CECIL      CLOUDY    72  70  94 CALM      30.03F
FERNANDINA BEA FAIR      77  70  78 CALM      30.02F
ST AUGUSTINE   CLEAR     76  73  91 CALM      30.04F
PALM COAST     FAIR      72  72 100 CALM      30.04S

STATION/POSITION SKY/WX   TEMP    WIND        PRES    WAVE   SWELL
                          AIR SEA DIR/SP/G            HT/PER HT/PER
                          (F)     (DEG/KT/KT) (MB)    (FT/S) (FT/S)
SHELL POINT      NOT AVBL
KEATON BEACH               82     210/  6/  7 1016.3F
CEDAR KEY                  80      CALM  /  1 1016.7F
FERNANDINA                           CALM     1017.8F
30.7N   81.3W                 82                N/A     2/ 8
MAYPORT                           250/  3/  4 1017.5F
31.4N   80.9W              82 83  190/ 10/ 12 1016.7F   2/ 7   2/ 7
ST AUGUSTINE               78 83   40/  3/  4 1017.1F

$$
FLZ040-043>046-052-053-057-058-063-144-210700-
INTERIOR CENTRAL FLORIDA

CITY           SKY/WX    TMP DP  RH WIND       PRES   REMARKS
OCALA          PTCLDY    71  70  96 CALM      30.05S
THE VILLAGES     N/A     75  75 100 MISG      29.95F
LEESBURG       CLOUDY    77  74  90 NW5       30.07R
SANFORD        CLEAR     73  71  93 E6        30.02F
ORLANDO INTL   PTCLDY    73  73 100 SE5       30.02F
KISSIMMEE      PTCLDY    75  74  96 SE9       30.02F
WINTER HAVEN   CLEAR     76  73  91 SE8       30.02F
LAKELAND         N/A     73  73 100 SE5       30.03S
BARTOW         FAIR      73 N/A N/A SE10      30.01F
SEBRING        FAIR      76  73  91 CALM      30.03F
OKEECHOBEE     PTCLDY    72  72 100 CALM      30.05F

$$
FLZ041-047-054-059-064-141-147-210700-
EAST CENTRAL FLORIDA

CITY           SKY/WX    TMP DP  RH WIND       PRES   REMARKS
DAYTONA BEACH  CLEAR     74  72  93 CALM      30.03F
DELAND         CLEAR     73  72  94 E3        30.03S
CAPE CANAVERAL CLEAR     76  74  94 SW5       30.00F
PATRICK AFB    CLEAR     78  76  95 SE6       30.02F
MELBOURNE      CLEAR     77  75  93 S5        30.03F
VERO BEACH     CLEAR     75  74  96 CALM      30.03F
FT PIERCE      CLEAR     75  74  96 CALM      30.03F
STUART         CLEAR     77  77 100 SW3       30.05F

STATION/POSITION SKY/WX   TEMP    WIND        PRES    WAVE   SWELL
                          AIR SEA DIR/SP/G            HT/PER HT/PER
                          (F)     (DEG/KT/KT) (MB)    (FT/S) (FT/S)
28.5N   80.2W              83 83  180/ 10/ 12 1018.0F   2/ 8   2/ 8
28.9N   78.5W              83 85  180/  6/ 10 1017.5F   3/ 7   3/ 7
TRIDENT PIER                      200/  4/  5 1018.2F
28.4N   80.5W                 82                N/A     2/ 8
27.5N   80.2W                 83                N/A     2/ 8

$$
FLZ050-056-061-142-242-148-248-149-249-151-251-155-255-
160-260-210700-
WEST CENTRAL FLORIDA

CITY           SKY/WX    TMP DP  RH WIND       PRES   REMARKS
CRYSTAL RIVER  FAIR      72  72 100 CALM      30.03F
INVERNESS      FAIR      72  72 100 CALM      30.05F
BROOKSVILLE    CLEAR     75  73  93 E5        30.04F
CLEARWATER AIR FAIR      79  75  89 CALM      30.01R
ST PETE CLEARW CLEAR     80  74  81 S3        30.01F
TAMPA INTL     PTCLDY    79  74  84 CALM      30.03S
TAMPA EXEC     MOCLDY    77  73  88 N5        30.04R
PLANT CITY     PTCLDY    77  75  94 CALM      30.05R
MACDILL AFB    CLEAR     78  78 100 SE5       30.01F
PETER O KNIGHT CLOUDY    81  81 100 E6        30.03R
ST PETERSBURG  CLEAR     82  77  84 S9        29.99F
SARASOTA       CLEAR     79  76  90 SE6       30.01F
VENICE         FAIR      81  75  83 SE6       30.02F

STATION/POSITION SKY/WX   TEMP    WIND        PRES    WAVE   SWELL
                          AIR SEA DIR/SP/G            HT/PER HT/PER
                          (F)     (DEG/KT/KT) (MB)    (FT/S) (FT/S)
27.3N   84.2W                 87                N/A     1/ 7
CLEARWATER BEACH                  160/  3/  4 1016.6S
MIDDLE TAMPA BAY                  160/  9/ 10 1016.2F
VENICE                     81 90  110/  3/  4 1016.5F

$$
FLZ066-069-070-075>078-162-262-165-265-210700-
SOUTHWEST FLORIDA AND KEYS

CITY           SKY/WX    TMP DP  RH WIND       PRES   REMARKS
PUNTA GORDA    CLEAR     76  74  93 CALM      30.04F
FT MYERS       CLEAR     79  77  94 S3        30.02F
SOUTHWEST INTL CLEAR     79  75  87 SE3       30.02F
NAPLES         CLEAR     80  77  90 CALM      30.03F
MARCO ISLAND   CLEAR     79  75  89 CALM      30.03F
IMMOKALEE        N/A     77  77 100 CALM      30.05S
MARATHON       PTCLDY    85  79  82 SE6       30.02F HX  98
KEY WEST NAS   CLEAR     84  78  82 SE7       30.03F HX  95
KEY WEST INTL  CLEAR     86  77  74 SE9       30.03F HX  97

STATION/POSITION SKY/WX   TEMP    WIND        PRES    WAVE   SWELL
                          AIR SEA DIR/SP/G            HT/PER HT/PER
                          (F)     (DEG/KT/KT) (MB)    (FT/S) (FT/S)
NAPLES                             CALM  /  3 1017.0F
DRY TORTUGAS               85     130/  6/  7 1017.2F
SAND KEY                   84     170/ 10/ 11 1017.6F
LONG KEY                          170/  8       N/A
MOLASSES REEF              84 86  160/  6/  7 1017.0F

$$
FLZ067-068-071>074-168-172>174-210700-
SOUTHEAST FLORIDA

CITY           SKY/WX    TMP DP  RH WIND       PRES   REMARKS
W PALM BEACH   PTCLDY    80  74  81 CALM      30.04F
FT LAUDER-EXEC PTCLDY    79  76  90 CALM      30.03F
FT LAUDERDALE  PTCLDY    82  77  84 CALM      30.02F
POMPANO BEACH  CLEAR     83  77  82 CALM      30.03F
PEMBROKE PINES PTCLDY    81  76  84 CALM      30.04
OPA LOCKA      CLEAR     81  79  94 CALM      30.03F
MIAMI          PTCLDY    83  76  79 CALM      30.03F
WEST KENDALL   CLEAR     81  76  84 CALM      30.02F
HOMESTEAD      CLEAR     79  79 100 S5        30.02F

STATION/POSITION SKY/WX   TEMP    WIND        PRES    WAVE   SWELL
                          AIR SEA DIR/SP/G            HT/PER HT/PER
                          (F)     (DEG/KT/KT) (MB)    (FT/S) (FT/S)
PORT EVERGLADES            84     190/  3/  5 1017.0F
VIRGINIA KEY                      170/  5/  6 1016.2F
LAKE WORTH                        250/  2/  3   N/A
FOWEY ROCKS                84 88  170/  9/ 10 1017.2F
SETTLEMENT POINT           83     150/  6/  7 1017.6R

$$





USA.gov is the U.S. government's official web portal to all federal, state and local government web resources and services.